sat.trackr.live / text

‹ back to catalog

ONEWEB-0347

NORAD 49280 · 2021-090B

PAYLOAD ACTIVE UNKNOWN

§ Identity

Operator
Country
UK
Launch date
2021-10-14
Launch site
VOSTO
Launch vehicle
Mass (kg)
RCS (m²)

Purposes: comms

External: N2YO · Heavens-Above · Gunter

§ Orbital elements

Epoch: 2026-05-25T02:09:50.606784Z

Period
109.03 min
Inclination
87.9177°
Eccentricity
0.0001913
Mean motion
13.20762310 rev/d
Perigee alt
1,180.4 km
Apogee alt
1,183.3 km
Semi-major
7,559.9 km
B*
-2.5230e-3
RAAN
279.0457°
Arg perigee
91.7888°
Mean anomaly
268.3465°
Rev number
22,799

§ Raw data

ONEWEB-03471 49280U 21090B   26145.09016906 -.00001013  00000+0 -25230-2 0  99942 49280  87.9177 279.0457 0001913  91.7888 268.3465 13.20762310227991

JSON: /api/v1/satellites/49280 · /tle

For live sub-satellite position, see the globe view (requires WebGL).

§ Visibility from observer

Set your observer location to see the next 7 days of passes ≥ 10°. The values pass through the URL so the page stays shareable.

No JS? Fill the form by hand. The geolocation button needs JavaScript.